Temperature
30 31 31 31 31 31 31 30 30 29 29 28 28 27 27 26 26 25 24 23 22 21 20 20 19 19 18 18 18 17 17 17 17 17 17 16 16 16 16 16 16 16 16 16
28 30 31 31 31 31 31 31 31 30 29 28 27 28 27 26 25 24 23 23 22 21 20 19 19 18 18 18 17 17 17 17 17 16 16 16 16 16 16 16 16 16 16 16
27 29 30 29 30 31 31 31 31 29 28 28 27 26 26 26 25 24 23 22 21 20 19 19 19 18 18 17 17 17 17 16 16 16 16 16 16 16 16 16 16 15 15 15
27 27 27 29 32 31 31 31 30 29 28 27 26 25 25 24 24 23 23 22 21 20 19 19 18 18 18 17 17 17 16 16 16 16 16 16 16 15 15 15 15 15 15 15
26 26 27 29 31 31 30 29 29 28 27 26 25 24 24 23 23 22 22 21 20 20 19 18 18 18 17 17 17 16 16 16 16 16 16 16 15 15 15 15 15 15 14 14
26 25 26 28 30 31 30 28 28 27 26 26 25 25 23 21 21 21 20 20 19 19 19 18 18 17 17 17 16 16 16 16 16 16 16 15 15 15 15 14 14 14 14 14
25 25 26 27 28 29 27 26 27 26 25 25 23 23 21 20 20 19 19 19 19 18 18 17 17 17 17 16 16 16 16 16 15 15 15 15 15 14 14 14 14 13 13 13
24 25 24 26 27 25 23 24 24 24 23 22 21 20 20 19 19 18 18 18 18 17 17 17 17 16 16 16 15 15 15 15 15 14 14 14 14 14 13 13 13 13 12 12
24 24 23 23 23 23 23 23 23 22 22 21 20 20 19 19 18 18 17 17 17 17 16 16 16 16 15 15 15 15 15 14 14 14 14 13 13 13 13 13 12 12 12 11
23 23 23 23 23 22 22 22 22 21 21 20 20 19 18 18 17 17 16 16 16 16 15 15 15 15 15 14 14 14 14 14 13 13 13 12 12 12 12 12 12 11 11 11
22 22 22 22 22 22 21 21 21 21 20 19 19 18 17 17 16 16 15 15 15 14 14 14 14 14 14 14 14 14 13 13 12 12 12 12 11 11 11 11 11 11 11 10
21 21 21 20 20 20 20 20 20 19 19 18 18 17 16 16 15 15 14 14 14 13 13 13 13 13 13 13 13 13 13 12 12 11 11 11 10 10 10 10 10 10 10 9
20 20 20 20 20 20 19 19 19 18 17 17 16 16 15 15 14 14 13 13 13 13 13 12 12 12 12 12 12 12 12 11 11 10 10 10 9 9 9 8 8 8 8 8
19 19 19 19 19 19 18 18 17 17 16 16 15 15 14 14 13 13 12 12 12 12 12 12 12 12 11 12 12 11 11 11 10 10 9 9 9 8 8 8 7 7 7 7
19 19 19 18 18 17 17 17 16 16 15 14 14 14 13 13 12 12 12 11 11 11 11 11 11 11 11 11 11 11 10 10 9 9 9 8 8 8 7 7 7 7 6 6
18 18 18 18 17 17 16 16 15 15 14 13 13 13 12 12 11 11 11 11 11 11 10 10 10 10 10 10 10 10 10 9 9 9 8 8 8 7 7 7 6 6 6 6
18 17 17 17 16 16 16 15 14 14 13 12 12 12 11 11 11 10 10 10 10 10 10 10 10 9 9 9 9 9 9 8 8 8 8 8 7 7 7 6 6 6 5 6
16 16 16 16 16 15 15 14 13 13 12 12 11 11 11 10 10 9 9 9 9 9 9 9 9 9 9 9 9 9 8 8 8 8 8 7 7 7 7 7 6 6 6 6
15 15 15 14 14 14 13 13 12 12 11 11 10 10 10 10 9 9 9 9 8 8 8 8 8 8 8 9 9 9 8 8 8 8 8 8 7 7 7 7 7 6 6 6
13 13 13 13 13 13 12 12 11 11 10 10 10 9 9 9 9 8 8 8 8 8 8 8 8 8 8 8 9 9 8 8 8 8 8 8 8 7 7 7 7 6 6 6
12 12 12 12 12 11 11 11 10 10 9 9 9 9 9 8 8 8 8 8 8 8 8 8 8 8 8 9 9 9 9 8 8 8 8 8 8 8 7 7 7 6 6 6
11 11 11 11 11 10 10 10 10 9 9 9 9 9 8 8 8 8 8 8 8 8 8 8 8 8 8 9 9 9 9 8 8 8 8 8 8 8 7 7 7 7 6 6
10 10 10 10 10 10 9 9 9 9 9 9 9 9 9 9 8 8 8 8 8 8 8 8 8 8 9 9 9 9 9 9 8 8 8 8 8 8 7 7 7 7 6 6
10 9 9 9 9 9 9 9 9 9 9 9 9 9 9 8 8 8 8 8 8 8 8 8 8 8 9 9 9 9 9 8 8 8 8 8 8 8 8 7 7 7 7 6
9 9 9 9 9 9 9 8 8 8 9 9 9 9 9 9 8 8 8 8 8 8 8 8 8 8 9 9 9 9 8 8 8 8 8 8 8 8 8 7 7 7 7 7
8 8 9 9 9 9 9 9 9 9 9 9 9 9 9 8 8 8 8 8 8 8 8 8 8 8 8 8 8 8 8 8 8 8 8 8 8 8 8 7 7 7 7 7
8 9 9 9 9 9 9 9 9 9 9 9 9 9 8 8 8 8 8 8 8 8 8 8 8 8 8 8 8 8 8 8 8 8 8 8 8 8 7 7 7 7 7 7
Wind_Speed
18 15 13 15 16 18 18 16 12 6 7 8 8 10 11 10 11 11 10 10 9 8 8 7 6 5 5 5 5 6 7 7 7 6 5 5 5 5 6 5 6 5 5 5
18 19 16 14 16 17 17 15 13 8 5 8 6 8 11 11 11 11 10 9 9 8 8 7 6 6 5 5 6 5 5 6 6 6 6 5 5 5 5 5 5 5 5 5
16 18 17 17 15 15 13 12 11 7 4 10 9 8 8 9 9 10 9 9 9 8 7 6 6 6 5 5 5 6 5 5 5 6 5 5 6 6 6 5 5 5 5 5
15 15 18 14 12 11 11 10 6 6 8 9 12 10 7 7 9 8 8 9 8 7 7 6 6 6 5 6 6 6 5 5 5 5 5 5 5 5 6 5 5 5 6 7
14 16 16 12 10 11 11 8 6 8 10 10 12 10 8 7 8 8 7 7 7 6 6 6 6 6 5 5 5 5 5 5 5 5 5 5 6 6 6 7 7 7 7 8
12 14 14 9 6 6 7 7 6 8 9 10 9 6 6 8 9 9 8 7 6 6 7 6 5 6 5 5 5 5 4 5 5 5 5 6 7 7 7 8 9 9 9 9
15 14 10 3 3 3 7 3 7 9 8 9 6 6 10 10 9 8 8 7 6 6 6 5 5 5 5 5 5 5 5 6 6 6 7 7 7 7 9 9 10 10 11 10
15 15 7 2 3 2 6 8 10 11 12 12 11 11 10 10 9 8 7 6 6 6 6 6 5 6 6 5 5 6 7 7 7 7 7 7 8 8 9 10 11 10 10 10
7 4 6 9 8 8 7 8 10 11 11 11 10 10 9 9 8 8 7 6 6 6 7 6 5 6 6 5 6 7 8 8 8 8 7 7 8 8 8 8 8 8 8 9
4 7 9 8 8 8 9 9 9 9 9 10 10 9 8 8 7 7 7 6 6 7 7 6 6 6 6 6 8 9 9 9 8 9 9 8 7 6 6 6 7 8 8 9
5 8 8 8 8 9 9 8 9 8 9 9 9 9 8 7 7 6 6 6 6 7 7 7 7 7 7 7 9 10 10 10 10 10 10 10 10 9 8 7 5 7 7 8
3 6 7 7 6 7 7 8 8 7 8 8 8 8 8 7 7 6 6 6 6 7 8 8 8 8 7 7 8 10 9 9 9 9 9 10 11 12 18 15 16 15 13 12
4 6 7 8 6 7 6 6 7 7 7 8 7 8 8 7 7 7 6 6 7 8 8 8 8 8 7 7 8 9 9 9 9 9 9 10 10 11 12 14 18 18 17 16
3 4 5 6 5 6 6 6 7 7 7 7 7 8 8 7 7 7 7 7 8 9 9 9 9 8 7 7 9 9 10 10 10 9 9 10 10 10 10 11 11 10 11 13
1 2 4 4 4 4 4 5 6 6 6 7 8 8 8 8 8 8 8 9 9 10 9 9 9 8 7 8 9 9 9 8 8 9 10 10 10 10 10 11 11 11 9 8
1 2 4 4 4 4 3 3 5 6 6 7 8 8 9 9 9 9 9 8 10 10 9 9 9 8 8 9 10 9 9 13 11 10 10 9 9 10 10 10 11 10 9 9
4 4 4 4 5 5 4 4 5 6 7 8 9 10 10 11 11 10 9 9 10 10 9 9 8 8 8 8 10 9 10 11 12 11 10 10 9 9 10 10 10 9 8 7
3 3 3 3 4 5 5 5 5 7 9 10 10 10 11 11 11 10 10 11 11 10 9 8 8 8 8 8 8 9 9 9 9 10 9 9 9 9 9 9 10 10 9 8
1 2 3 4 4 5 6 7 8 8 10 11 11 11 11 11 11 11 11 11 11 10 7 8 9 9 9 9 9 8 9 10 10 9 9 9 9 8 8 9 9 9 8 7
2 3 4 5 6 7 8 8 9 10 10 11 12 12 11 11 11 11 11 9 7 7 8 8 8 8 8 8 7 8 9 10 10 10 9 9 8 8 8 8 9 8 7 6
4 4 6 7 8 8 9 10 10 10 11 11 12 12 12 11 10 10 10 9 8 8 8 7 6 6 6 5 5 8 8 9 9 9 8 8 8 8 8 8 8 7 7 6
5 6 8 9 10 9 9 10 11 12 12 11 12 12 11 11 10 9 9 8 9 8 7 6 6 6 4 3 6 8 8 8 8 7 7 7 7 7 7 7 7 7 6 6
7 8 9 10 11 11 11 11 11 11 11 11 10 10 10 9 8 9 9 7 8 7 5 6 7 7 3 3 5 8 8 8 8 7 7 7 7 7 7 7 6 6 6 6
9 9 10 11 12 12 12 11 11 10 10 9 9 9 9 8 8 8 8 9 8 8 6 8 8 5 1 4 6 7 7 6 6 6 6 6 6 6 6 6 6 6 6 6
10 10 11 11 11 10 11 12 11 10 9 8 9 8 7 7 8 9 9 10 10 9 8 7 5 2 1 4 5 6 6 5 4 5 5 5 5 5 5 5 5 5 5 5
9 8 8 9 9 8 9 8 8 8 8 8 7 7 7 8 9 9 8 10 10 8 7 6 5 3 4 4 4 5 5 5 5 4 4 4 5 5 5 5 6 5 4 4
9 8 7 7 7 7 7 8 8 9 9 9 9 8 8 8 9 9 9 8 8 7 6 6 5 5 5 5 5 4 4 4 4 4 4 4 4 4 5 5 4 4 4 4
Wind_Direction
255 260 248 222 222 222 223 234 244 239 188 175 159 148 147 150 144 138 139 142 141 141 137 138 137 140 140 144 145 151 158 164 168 171 170 168 166 166 164 168 172 164 162 162
247 254 257 245 228 224 225 229 234 230 192 131 134 144 148 149 143 142 145 146 142 139 139 144 147 150 150 150 147 147 154 161 161 164 166 164 161 152 150 154 153 149 151 154
246 244 249 243 235 229 225 229 231 223 169 138 142 131 144 144 142 141 142 140 141 144 145 146 151 155 155 147 144 145 149 150 152 158 161 160 161 150 150 148 142 137 134 124
247 248 243 242 237 233 225 220 205 145 132 122 120 117 119 129 134 133 134 136 138 143 139 142 148 151 148 147 141 141 140 139 140 146 153 150 144 140 137 131 127 120 113 112
239 241 241 240 232 231 225 209 158 141 133 131 123 118 101 94 108 117 118 117 126 133 133 132 137 137 138 141 141 141 137 134 136 137 136 134 136 135 130 122 115 111 110 109
234 239 240 239 244 247 213 200 132 123 129 135 141 155 119 98 92 92 92 97 104 115 118 118 117 128 135 134 127 125 127 122 118 125 132 127 121 121 118 113 109 105 98 97
236 240 241 280 317 266 213 173 102 109 112 119 111 101 118 113 101 97 94 98 103 107 107 105 113 121 127 124 124 122 117 111 106 106 109 109 111 114 115 112 107 102 98 91
232 237 232 42 142 79 71 67 80 94 96 103 105 110 113 110 106 104 102 103 104 102 100 96 101 117 115 112 111 112 111 108 105 103 105 110 108 108 112 115 113 108 103 94
219 208 88 71 87 96 98 87 86 90 96 112 118 116 114 109 107 103 100 98 96 100 96 90 88 102 113 112 112 112 106 101 100 100 96 97 103 108 111 113 117 117 114 109
149 139 116 103 102 100 92 90 96 101 111 118 118 116 115 109 104 101 100 97 98 99 98 88 82 88 98 110 113 111 108 103 100 98 93 87 85 90 101 109 119 124 122 119
151 132 114 94 89 91 94 94 91 97 106 111 117 121 119 116 110 104 99 95 100 105 102 96 90 88 89 100 112 112 110 109 105 99 96 88 77 66 76 72 97 119 120 121
131 114 112 109 104 100 95 93 90 89 98 106 112 118 116 111 109 106 99 96 99 102 101 95 92 91 88 98 113 117 116 112 109 108 106 103 98 82 63 70 71 76 89 102
70 88 105 113 108 103 102 100 96 94 104 112 111 116 114 111 106 106 104 105 103 103 101 100 97 95 95 100 108 111 114 115 114 115 114 113 111 109 100 76 68 69 80 91
75 91 106 108 105 99 102 101 104 105 108 109 111 114 115 112 107 105 104 103 103 101 99 98 97 95 97 101 107 109 109 110 114 116 116 115 114 114 114 113 104 89 78 88
139 108 116 115 113 116 116 122 121 117 116 117 117 115 117 115 111 105 104 105 104 101 98 97 96 96 101 106 109 112 113 114 112 111 111 113 114 114 114 114 114 114 113 102
185 168 156 154 146 145 148 144 130 124 124 123 122 118 115 114 111 107 104 106 107 103 100 99 98 101 104 110 109 107 108 115 116 116 115 116 117 118 118 118 119 121 125 129
217 204 190 182 178 181 174 151 135 132 131 128 121 120 120 116 112 108 105 102 102 103 102 101 102 105 111 118 118 117 118 121 122 118 118 121 122 124 125 126 127 128 130 139
232 213 209 205 195 177 155 136 129 133 134 129 124 124 121 117 113 110 108 106 102 99 99 105 110 112 113 114 115 121 124 125 123 121 123 126 131 132 130 129 131 132 137 149
182 159 175 176 159 150 142 134 125 119 123 125 124 121 119 116 115 115 115 113 111 108 108 110 113 116 115 113 115 121 123 123 122 123 126 131 134 131 133 135 135 135 139 144
110 136 148 144 136 136 136 131 125 122 123 125 126 125 121 121 121 121 118 111 111 117 122 124 125 121 124 128 128 129 129 129 129 132 135 138 136 136 136 134 131 132 134 135
119 123 125 123 121 123 128 129 128 126 126 128 129 128 126 125 127 127 124 117 116 121 125 127 127 128 129 130 138 127 127 130 133 136 136 137 137 136 133 133 136 138 139 138
117 120 121 122 121 119 118 120 122 124 126 126 126 127 128 128 128 123 116 121 132 135 138 135 129 116 108 127 135 130 131 131 131 133 135 136 137 138 139 139 141 142 142 143
115 113 115 119 118 118 117 119 121 122 124 127 131 134 132 128 129 126 125 129 137 142 139 122 109 97 75 142 126 126 128 130 132 135 138 142 143 143 145 147 147 147 149 153
113 114 115 117 117 117 117 118 118 118 121 122 124 124 123 122 121 120 121 124 125 131 121 109 105 93 82 130 122 124 126 128 134 139 141 143 144 146 149 152 153 154 158 164
110 113 116 119 118 118 119 120 120 121 121 120 123 125 123 122 122 120 122 126 130 127 125 123 118 115 150 126 124 125 126 127 132 138 141 141 144 142 143 148 152 160 165 170
108 111 113 116 118 123 126 129 129 128 126 122 120 119 115 115 118 123 129 134 133 134 136 144 154 171 144 127 125 130 132 134 138 145 147 148 152 154 156 161 168 173 171 175
106 106 108 110 115 121 125 128 127 128 128 128 126 126 128 131 131 134 136 139 144 148 153 163 163 159 155 152 146 145 148 154 160 167 165 160 160 164 165 171 180 179 182 183
Height
1429 1423 1422 1425 1428 1428 1434 1437 1444 1444 1446 1446 1447 1451 1456 1459 1463 1467 1471 1475 1478 1481 1484 1487 1489 1491 1493 1494 1496 1497 1498 1499 1500 1502 1503 1505 1507 1508 1511 1513 1515 1517 1520 1522
1433 1424 1422 1423 1422 1423 1426 1429 1433 1438 1443 1442 1448 1450 1455 1459 1462 1467 1471 1475 1478 1481 1483 1486 1488 1490 1492 1494 1495 1496 1498 1499 1500 1501 1503 1504 1506 1507 1509 1511 1513 1516 1518 1520
1438 1427 1426 1433 1423 1422 1424 1423 1428 1438 1442 1442 1448 1451 1456 1459 1462 1467 1471 1474 1477 1480 1483 1486 1488 1490 1491 1493 1495 1496 1497 1499 1500 1501 1502 1504 1505 1507 1508 1510 1512 1514 1517 1518
1438 1436 1448 1427 1411 1414 1420 1423 1425 1432 1438 1443 1449 1454 1458 1461 1464 1468 1471 1474 1477 1480 1483 1485 1487 1489 1491 1493 1494 1496 1497 1498 1499 1501 1502 1503 1504 1506 1508 1510 1511 1513 1515 1517
1438 1441 1436 1421 1413 1414 1420 1426 1426 1431 1437 1445 1450 1455 1460 1463 1466 1468 1472 1474 1477 1480 1482 1484 1486 1488 1490 1492 1493 1495 1496 1497 1499 1500 1501 1502 1503 1505 1507 1509 1510 1512 1515 1517
1436 1443 1444 1426 1415 1414 1419 1432 1429 1434 1439 1445 1449 1456 1464 1466 1467 1470 1472 1475 1477 1480 1482 1484 1486 1487 1489 1491 1492 1494 1495 1496 1497 1499 1500 1501 1502 1504 1506 1508 1510 1512 1514 1517
1436 1439 1432 1421 1419 1420 1437 1440 1434 1437 1441 1447 1453 1457 1464 1467 1469 1471 1473 1475 1477 1479 1481 1483 1485 1486 1488 1489 1491 1492 1494 1495 1496 1497 1499 1500 1502 1503 1505 1508 1510 1512 1515 1517
1434 1439 1440 1425 1425 1433 1440 1438 1439 1442 1445 1451 1456 1461 1465 1468 1470 1472 1474 1476 1478 1479 1481 1482 1484 1485 1486 1488 1490 1491 1492 1494 1495 1497 1499 1500 1501 1503 1505 1508 1510 1513 1515 1517
1429 1434 1433 1432 1434 1438 1440 1443 1444 1447 1450 1455 1459 1463 1466 1469 1471 1473 1475 1477 1478 1479 1480 1482 1483 1484 1485 1487 1488 1490 1491 1493 1494 1496 1498 1500 1502 1504 1506 1508 1510 1513 1515 1517
1428 1431 1433 1436 1439 1441 1443 1446 1448 1451 1454 1457 1460 1464 1467 1470 1472 1474 1476 1477 1478 1479 1480 1481 1482 1483 1485 1486 1488 1489 1490 1492 1494 1496 1498 1500 1502 1504 1506 1508 1510 1512 1515 1517
1431 1433 1434 1439 1441 1444 1447 1449 1451 1454 1456 1459 1462 1465 1468 1471 1473 1475 1476 1477 1478 1479 1480 1481 1482 1483 1484 1485 1487 1488 1490 1492 1494 1496 1498 1500 1502 1504 1506 1509 1511 1513 1515 1517
1434 1434 1437 1443 1446 1447 1449 1451 1454 1456 1459 1461 1463 1466 1469 1471 1473 1475 1476 1478 1479 1479 1480 1481 1482 1483 1484 1486 1487 1488 1490 1492 1494 1496 1498 1500 1502 1505 1508 1510 1512 1515 1517 1519
1436 1437 1440 1444 1447 1449 1452 1454 1456 1458 1460 1462 1465 1467 1469 1471 1473 1475 1477 1478 1479 1480 1480 1481 1482 1483 1485 1486 1488 1489 1490 1492 1494 1497 1499 1502 1504 1506 1509 1513 1515 1518 1520 1522
1440 1441 1443 1446 1449 1451 1453 1455 1457 1459 1462 1464 1466 1468 1470 1472 1474 1475 1477 1478 1479 1480 1481 1482 1483 1485 1486 1488 1489 1490 1492 1494 1496 1498 1501 1504 1506 1509 1511 1513 1517 1520 1524 1526
1441 1443 1446 1448 1451 1453 1455 1457 1459 1460 1463 1465 1466 1468 1470 1472 1474 1475 1477 1478 1480 1481 1482 1484 1485 1486 1488 1489 1491 1492 1494 1496 1498 1501 1504 1506 1509 1512 1514 1517 1519 1523 1526 1530
1443 1445 1447 1449 1452 1454 1456 1458 1459 1461 1463 1465 1466 1468 1470 1472 1474 1476 1478 1479 1481 1482 1484 1485 1487 1488 1490 1492 1493 1495 1496 1499 1501 1504 1507 1509 1512 1515 1518 1520 1523 1526 1529 1532
1443 1445 1447 1450 1452 1455 1456 1458 1460 1462 1464 1465 1467 1469 1471 1473 1474 1477 1479 1481 1482 1484 1485 1487 1489 1491 1492 1494 1496 1497 1499 1502 1505 1507 1510 1513 1516 1519 1521 1524 1527 1530 1533 1536
1444 1446 1448 1450 1452 1454 1456 1458 1460 1462 1464 1465 1467 1469 1471 1473 1476 1478 1480 1482 1484 1486 1488 1490 1491 1493 1495 1497 1499 1501 1503 1505 1508 1510 1513 1517 1520 1523 1526 1528 1531 1534 1536 1539
1443 1445 1447 1449 1452 1453 1456 1458 1460 1462 1464 1466 1468 1469 1472 1475 1478 1480 1482 1484 1486 1488 1491 1493 1495 1496 1498 1501 1503 1505 1507 1509 1512 1515 1518 1520 1524 1526 1529 1532 1534 1537 1540 1542
1443 1445 1447 1449 1451 1453 1456 1458 1461 1463 1465 1467 1470 1472 1475 1478 1480 1483 1485 1487 1490 1492 1494 1496 1498 1501 1502 1505 1507 1509 1511 1513 1516 1518 1521 1524 1527 1530 1532 1534 1537 1539 1541 1544
1444 1445 1447 1449 1452 1454 1456 1459 1461 1464 1466 1469 1471 1475 1477 1480 1483 1485 1488 1490 1493 1495 1498 1500 1502 1504 1506 1508 1510 1513 1515 1517 1519 1522 1524 1527 1529 1532 1534 1537 1539 1541 1543 1545
1445 1447 1448 1450 1453 1455 1458 1460 1463 1465 1468 1471 1475 1478 1480 1483 1486 1489 1491 1493 1496 1498 1501 1504 1506 1508 1510 1512 1514 1516 1518 1520 1522 1525 1527 1529 1531 1534 1536 1538 1540 1542 1544 1546
1447 1448 1450 1452 1455 1457 1460 1463 1466 1468 1471 1474 1478 1481 1484 1487 1489 1491 1494 1497 1499 1502 1504 1507 1509 1511 1513 1515 1517 1519 1521 1523 1525 1527 1529 1531 1533 1535 1537 1539 1541 1543 1544 1546
1449 1451 1453 1456 1458 1461 1464 1467 1470 1473 1476 1479 1482 1485 1487 1490 1493 1496 1498 1500 1502 1505 1507 1509 1511 1513 1515 1518 1520 1521 1523 1525 1527 1529 1531 1532 1534 1536 1538 1540 1541 1543 1544 1546
1453 1455 1457 1460 1462 1465 1468 1471 1474 1477 1480 1483 1486 1489 1491 1494 1496 1498 1500 1503 1505 1507 1509 1512 1514 1516 1518 1520 1521 1523 1525 1527 1528 1530 1532 1533 1535 1537 1538 1540 1541 1543 1544 1545
1457 1459 1462 1464 1467 1470 1472 1475 1478 1481 1483 1486 1489 1492 1495 1497 1499 1501 1503 1506 1508 1510 1512 1514 1516 1517 1519 1521 1523 1524 1526 1527 1529 1530 1532 1534 1535 1537 1538 1539 1541 1542 1543 1544
1462 1464 1466 1469 1472 1474 1477 1479 1482 1484 1487 1489 1492 1495 1498 1500 1502 1504 1506 1508 1510 1512 1514 1516 1518 1519 1521 1522 1524 1525 1526 1528 1529 1531 1532 1533 1535 1536 1537 1538 1539 1540 1541 1542